| time (UTC) | temp C | wind direction | speed KPH | gust KPH | rain 1hr cm | rain 24hr cm | rain mn cm | humidity % | barometer mb |
| 20260502180132 | 7 | 328 | 8.0 | 14.5 | 0.00 | 0.00 | 0.00 | 42 | 1016.2 |
| 20260502170143 | 6 | 308 | 8.0 | 16.1 | 0.00 | 0.00 | 0.00 | 44 | 1016.4 |
| 20260502164142 | 6 | 24 | 4.8 | 12.9 | 0.00 | 0.00 | 0.00 | 44 | 1016.5 |
| 20260502163645 | 6 | 50 | 1.6 | 16.1 | 0.00 | 0.00 | 0.00 | 46 | 1016.5 |
| 20260502163131 | 6 | 312 | 6.4 | 20.9 | 0.00 | 0.00 | 0.00 | 44 | 1016.6 |
| 20260502162633 | 6 | 335 | 9.7 | 20.9 | 0.00 | 0.00 | 0.00 | 43 | 1016.5 |
| 20260502162151 | 6 | 295 | 1.6 | 12.9 | 0.00 | 0.00 | 0.00 | 45 | 1016.6 |
| 20260502161655 | 6 | 321 | 4.8 | 12.9 | 0.00 | 0.00 | 0.00 | 45 | 1016.5 |
| 20260502161134 | 6 | 262 | 4.8 | 11.3 | 0.00 | 0.00 | 0.00 | 44 | 1016.6 |
| 20260502160636 | 6 | 61 | 3.2 | 16.1 | 0.00 | 0.00 | 0.00 | 47 | 1016.6 |
| 20260502160155 | 7 | 287 | 1.6 | 9.7 | 0.00 | 0.00 | 0.00 | 45 | 1016.6 |
| 20260502151634 | 6 | 328 | 4.8 | 12.9 | 0.00 | 0.00 | 0.00 | 47 | 1016.5 |
| 20260502151154 | 5 | 328 | 3.2 | 11.3 | 0.00 | 0.00 | 0.00 | 47 | 1016.5 |
| 20260502150659 | 6 | 110 | 3.2 | 11.3 | 0.00 | 0.00 | 0.00 | 47 | 1016.5 |
| 20260502150143 | 6 | 300 | 6.4 | 11.3 | 0.00 | 0.00 | 0.00 | 45 | 1016.5 |
| 20260502130655 | 3 | 307 | 3.2 | 8.0 | 0.00 | 0.08 | 0.00 | 74 | 1016.7 |
| 20260502130137 | 3 | 23 | 3.2 | 8.0 | 0.00 | 0.08 | 0.00 | 75 | 1016.6 |
| 20260502123630 | 2 | 287 | 1.6 | 3.2 | 0.00 | 0.08 | 0.00 | 79 | 1016.5 |
| 20260502123135 | 2 | 9 | 0.0 | 4.8 | 0.00 | 0.08 | 0.00 | 80 | 1016.5 |
| 20260502122637 | 2 | 87 | 0.0 | 8.0 | 0.00 | 0.08 | 0.00 | 81 | 1016.5 |
| 20260502122157 | 2 | 289 | 0.0 | 8.0 | 0.00 | 0.08 | 0.00 | 82 | 1016.5 |
| 20260502121659 | 2 | 313 | 0.0 | 6.4 | 0.00 | 0.08 | 0.00 | 83 | 1016.5 |
| 20260502121137 | 2 | 6 | 1.6 | 6.4 | 0.00 | 0.08 | 0.00 | 84 | 1016.4 |
| 20260502120642 | 2 | 299 | 1.6 | 8.0 | 0.00 | 0.08 | 0.00 | 84 | 1016.4 |
| 20260502120145 | 2 | 266 | 3.2 | 8.0 | 0.00 | 0.08 | 0.00 | 84 | 1016.4 |
| 20260502115647 | 2 | 346 | 1.6 | 8.0 | 0.00 | 0.08 | 0.00 | 85 | 1016.4 |
| 20260502115145 | 2 | 304 | 1.6 | 8.0 | 0.00 | 0.08 | 0.00 | 86 | 1016.3 |
| 20260502114648 | 1 | 307 | 1.6 | 4.8 | 0.00 | 0.08 | 0.00 | 88 | 1016.3 |
| 20260502114148 | 1 | 290 | 3.2 | 4.8 | 0.00 | 0.08 | 0.00 | 89 | 1016.2 |
| 20260502113631 | 1 | 299 | 0.0 | 3.2 | 0.00 | 0.08 | 0.00 | 90 | 1016.2 |
| 20260502113137 | 1 | 283 | 0.0 | 3.2 | 0.00 | 0.08 | 0.00 | 91 | 1016.2 |
| 20260502112639 | 0 | 285 | 0.0 | 3.2 | 0.00 | 0.08 | 0.00 | 91 | 1016.2 |
| 20260502112204 | 0 | 285 | 0.0 | 0.0 | 0.00 | 0.08 | 0.00 | 91 | 1016.1 |
| 20260502111645 | 0 | 63 | 0.0 | 0.0 | 0.00 | 0.08 | 0.00 | 91 | 1016.0 |
| 20260502111140 | 0 | 63 | 0.0 | 0.0 | 0.00 | 0.08 | 0.00 | 91 | 1015.9 |
| 20260502110642 | 0 | 63 | 0.0 | 0.0 | 0.00 | 0.08 | 0.00 | 91 | 1015.9 |
| 20260502110147 | 0 | 63 | 0.0 | 0.0 | 0.00 | 0.08 | 0.00 | 90 | 1015.9 |
| 20260502105649 | 0 | 63 | 0.0 | 0.0 | 0.00 | 0.08 | 0.00 | 90 | 1015.9 |
| 20260502105147 | 0 | 63 | 0.0 | 0.0 | 0.00 | 0.08 | 0.00 | 90 | 1015.9 |
| 20260502104648 | 0 | 63 | 0.0 | 0.0 | 0.00 | 0.08 | 0.00 | 90 | 1015.9 |
| 20260502104137 | 0 | 63 | 0.0 | 0.0 | 0.00 | 0.08 | 0.00 | 89 | 1015.9 |
| 20260502103642 | 0 | 63 | 0.0 | 0.0 | 0.00 | 0.08 | 0.00 | 89 | 1016.0 |
| 20260502103145 | 0 | 63 | 0.0 | 0.0 | 0.00 | 0.08 | 0.00 | 88 | 1015.9 |
| 20260502102648 | 0 | 63 | 0.0 | 0.0 | 0.00 | 0.08 | 0.00 | 87 | 1016.0 |
| 20260502102148 | 0 | 63 | 0.0 | 0.0 | 0.00 | 0.08 | 0.00 | 86 | 1015.9 |
| 20260502101631 | 0 | 63 | 0.0 | 0.0 | 0.00 | 0.08 | 0.00 | 87 | 1015.9 |
| 20260502101215 | 1 | 64 | 0.0 | 0.0 | 0.00 | 0.08 | 0.00 | 86 | 1015.9 |
| 20260502100655 | 1 | 64 | 0.0 | 0.0 | 0.00 | 0.08 | 0.00 | 86 | 1015.9 |
| 20260502100139 | 1 | 63 | 0.0 | 0.0 | 0.00 | 0.08 | 0.00 | 86 | 1015.9 |
| 20260502091134 | 1 | 63 | 0.0 | 0.0 | 0.00 | 0.08 | 0.00 | 85 | 1015.8 |
| 20260502090637 | 1 | 63 | 0.0 | 0.0 | 0.00 | 0.08 | 0.00 | 85 | 1015.7 |
| 20260502090141 | 1 | 63 | 0.0 | 0.0 | 0.00 | 0.08 | 0.00 | 84 | 1015.7 |
| 20260502071137 | 2 | 63 | 0.0 | 0.0 | 0.00 | 0.08 | 0.00 | 80 | 1015.5 |
| 20260502070640 | 2 | 63 | 0.0 | 0.0 | 0.00 | 0.08 | 0.00 | 80 | 1015.5 |
| 20260502070206 | 2 | 73 | 0.0 | 0.0 | 0.00 | 0.08 | 0.00 | 82 | 1015.5 |
| 20260502065710 | 2 | 73 | 0.0 | 0.0 | 0.00 | 0.08 | 0.00 | 81 | 1015.5 |
| 20260502065148 | 2 | 110 | 0.0 | 0.0 | 0.00 | 0.08 | 0.00 | 81 | 1015.5 |
| 20260502064650 | 2 | 89 | 0.0 | 0.0 | 0.00 | 0.08 | 0.00 | 81 | 1015.6 |
| 20260502064145 | 2 | 90 | 0.0 | 0.0 | 0.00 | 0.08 | 0.00 | 81 | 1015.6 |
| 20260502063648 | 2 | 85 | 0.0 | 0.0 | 0.00 | 0.08 | 0.00 | 82 | 1015.7 |
| 20260502063145 | 2 | 83 | 0.0 | 0.0 | 0.00 | 0.08 | 0.00 | 81 | 1015.8 |
| 20260502062647 | 2 | 83 | 0.0 | 0.0 | 0.00 | 0.08 | 0.00 | 81 | 1015.7 |
| 20260502062145 | 2 | 83 | 0.0 | 0.0 | 0.00 | 0.08 | 0.00 | 81 | 1015.8 |
| 20260502061648 | 2 | 93 | 0.0 | 0.0 | 0.00 | 0.08 | 0.00 | 80 | 1015.8 |
| 20260502061146 | 2 | 92 | 0.0 | 0.0 | 0.00 | 0.08 | 0.00 | 81 | 1015.8 |
| 20260502060649 | 2 | 94 | 0.0 | 0.0 | 0.00 | 0.08 | 0.00 | 80 | 1015.8 |
| 20260502060146 | 2 | 94 | 0.0 | 0.0 | 0.00 | 0.08 | 0.00 | 80 | 1015.9 |
| 20260502055649 | 2 | 94 | 0.0 | 0.0 | 0.00 | 0.08 | 0.00 | 80 | 1015.9 |
| 20260502055148 | 2 | 94 | 0.0 | 0.0 | 0.00 | 0.08 | 0.00 | 79 | 1015.9 |
| 20260502054652 | 2 | 94 | 0.0 | 0.0 | 0.00 | 0.08 | 0.00 | 78 | 1015.9 |
| 20260502054131 | 3 | 94 | 0.0 | 0.0 | 0.00 | 0.08 | 0.00 | 77 | 1015.9 |
| 20260502053656 | 3 | 94 | 0.0 | 0.0 | 0.00 | 0.08 | 0.00 | 77 | 1015.9 |
| 20260502053154 | 3 | 94 | 0.0 | 0.0 | 0.00 | 0.08 | 0.00 | 77 | 1015.9 |
| 20260502052636 | 3 | 94 | 0.0 | 0.0 | 0.00 | 0.08 | 0.00 | 77 | 1015.9 |
| 20260502052136 | 3 | 94 | 0.0 | 0.0 | 0.00 | 0.08 | 0.00 | 77 | 1015.9 |
| 20260502051638 | 3 | 94 | 0.0 | 0.0 | 0.00 | 0.08 | 0.00 | 77 | 1015.8 |
| 20260502051139 | 3 | 92 | 0.0 | 0.0 | 0.00 | 0.08 | 0.00 | 76 | 1015.8 |
| 20260502050709 | 3 | 92 | 0.0 | 0.0 | 0.00 | 0.08 | 0.00 | 76 | 1015.8 |
| 20260502050150 | 3 | 92 | 0.0 | 0.0 | 0.00 | 0.08 | 0.00 | 76 | 1015.8 |
| 20260502045652 | 3 | 91 | 0.0 | 0.0 | 0.00 | 0.08 | 0.00 | 75 | 1015.7 |
| 20260502045131 | 3 | 91 | 0.0 | 1.6 | 0.00 | 0.08 | 0.00 | 75 | 1015.6 |
| 20260502044635 | 3 | 91 | 0.0 | 1.6 | 0.00 | 0.08 | 0.00 | 75 | 1015.6 |
| 20260502044136 | 3 | 111 | 0.0 | 0.0 | 0.00 | 0.08 | 0.00 | 75 | 1015.5 |
| 20260502043639 | 3 | 97 | 0.0 | 0.0 | 0.00 | 0.08 | 0.00 | 75 | 1015.5 |
| 20260502043158 | 3 | 72 | 0.0 | 1.6 | 0.00 | 0.08 | 0.00 | 75 | 1015.4 |
| 20260502042708 | 3 | 72 | 0.0 | 3.2 | 0.00 | 0.08 | 0.00 | 74 | 1015.5 |
| 20260502042146 | 3 | 74 | 0.0 | 3.2 | 0.00 | 0.08 | 0.00 | 74 | 1015.5 |
| 20260502041650 | 3 | 62 | 1.6 | 3.2 | 0.00 | 0.08 | 0.00 | 74 | 1015.4 |
| 20260502041131 | 3 | 56 | 0.0 | 8.0 | 0.00 | 0.08 | 0.00 | 74 | 1015.4 |
| 20260502040635 | 3 | 60 | 3.2 | 8.0 | 0.00 | 0.08 | 0.00 | 73 | 1015.4 |
| 20260502040141 | 3 | 88 | 1.6 | 6.4 | 0.00 | 0.08 | 0.00 | 74 | 1015.3 |
| 20260502035710 | 3 | 73 | 1.6 | 6.4 | 0.00 | 0.08 | 0.00 | 73 | 1015.3 |
| 20260502035209 | 3 | 62 | 3.2 | 8.0 | 0.00 | 0.08 | 0.08 | 72 | 1015.3 |
| 20260502034630 | 3 | 65 | 3.2 | 6.4 | 0.00 | 0.08 | 0.08 | 71 | 1015.3 |
| 20260502034150 | 3 | 49 | 3.2 | 8.0 | 0.00 | 0.08 | 0.08 | 71 | 1015.2 |
| 20260502033632 | 3 | 52 | 3.2 | 14.5 | 0.00 | 0.08 | 0.08 | 70 | 1015.2 |
| 20260502033150 | 4 | 62 | 4.8 | 14.5 | 0.00 | 0.08 | 0.08 | 69 | 1015.0 |
| 20260502032632 | 4 | 43 | 4.8 | 11.3 | 0.00 | 0.08 | 0.08 | 68 | 1015.1 |
| 20260502032133 | 5 | 53 | 6.4 | 11.3 | 0.00 | 0.08 | 0.08 | 67 | 1015.0 |
| 20260502031637 | 5 | 53 | 6.4 | 11.3 | 0.00 | 0.08 | 0.08 | 65 | 1015.0 |
| 20260502031136 | 5 | 321 | 0.0 | 8.0 | 0.00 | 0.08 | 0.08 | 62 | 1014.9 |
| 20260502030706 | 5 | 327 | 1.6 | 8.0 | 0.00 | 0.08 | 0.08 | 61 | 1014.9 |
| 20260502030147 | 5 | 334 | 1.6 | 6.4 | 0.00 | 0.08 | 0.08 | 61 | 1014.8 |
| 20260502025652 | 5 | 108 | 0.0 | 9.7 | 0.00 | 0.08 | 0.08 | 62 | 1014.8 |
| 20260502025150 | 5 | 295 | 1.6 | 6.4 | 0.00 | 0.08 | 0.08 | 61 | 1014.8 |
| 20260502024633 | 5 | 311 | 1.6 | 6.4 | 0.00 | 0.08 | 0.08 | 61 | 1014.8 |
| 20260502024152 | 5 | 271 | 1.6 | 8.0 | 0.00 | 0.08 | 0.08 | 61 | 1014.8 |
| 20260502023633 | 5 | 262 | 1.6 | 6.4 | 0.00 | 0.08 | 0.08 | 61 | 1014.9 |
| 20260502023153 | 5 | 293 | 1.6 | 8.0 | 0.00 | 0.08 | 0.08 | 61 | 1014.9 |
| 20260502022655 | 5 | 300 | 3.2 | 8.0 | 0.00 | 0.08 | 0.08 | 61 | 1014.9 |
| 20260502022155 | 5 | 280 | 1.6 | 6.4 | 0.00 | 0.08 | 0.08 | 63 | 1014.9 |
| 20260502021640 | 6 | 356 | 0.0 | 6.4 | 0.00 | 0.08 | 0.08 | 64 | 1014.7 |
| 20260502021139 | 6 | 317 | 0.0 | 0.0 | 0.00 | 0.08 | 0.08 | 63 | 1014.7 |
| 20260502020708 | 6 | 318 | 0.0 | 4.8 | 0.00 | 0.08 | 0.08 | 63 | 1014.6 |
| 20260502020131 | 6 | 77 | 0.0 | 11.3 | 0.00 | 0.08 | 0.08 | 64 | 1014.5 |
| 20260502015633 | 6 | 259 | 1.6 | 11.3 | 0.00 | 0.08 | 0.08 | 63 | 1014.5 |
| 20260502015131 | 6 | 236 | 1.6 | 6.4 | 0.00 | 0.08 | 0.08 | 63 | 1014.4 |
| 20260502014635 | 6 | 295 | 0.0 | 6.4 | 0.00 | 0.08 | 0.08 | 63 | 1014.4 |
| 20260502014134 | 6 | 288 | 1.6 | 6.4 | 0.00 | 0.08 | 0.08 | 62 | 1014.4 |
| 20260502013636 | 6 | 319 | 1.6 | 4.8 | 0.00 | 0.08 | 0.08 | 62 | 1014.3 |
| 20260502013139 | 6 | 302 | 0.0 | 4.8 | 0.00 | 0.08 | 0.08 | 62 | 1014.3 |
| 20260502012643 | 6 | 40 | 0.0 | 6.4 | 0.00 | 0.08 | 0.08 | 62 | 1014.2 |
| 20260502012143 | 6 | 299 | 1.6 | 6.4 | 0.00 | 0.08 | 0.08 | 61 | 1014.3 |
| 20260502011647 | 6 | 336 | 3.2 | 8.0 | 0.00 | 0.08 | 0.08 | 61 | 1014.2 |
| 20260502011147 | 6 | 308 | 3.2 | 8.0 | 0.00 | 0.08 | 0.08 | 61 | 1014.2 |
| 20260502010647 | 6 | 352 | 1.6 | 9.7 | 0.00 | 0.08 | 0.08 | 61 | 1014.1 |
| 20260502010130 | 6 | 293 | 3.2 | 9.7 | 0.00 | 0.08 | 0.08 | 60 | 1014.1 |
| 20260502005700 | 6 | 338 | 3.2 | 12.9 | 0.00 | 0.08 | 0.08 | 61 | 1014.1 |
| 20260502005138 | 6 | 275 | 6.4 | 12.9 | 0.00 | 0.08 | 0.08 | 60 | 1014.1 |
| 20260502004710 | 6 | 295 | 4.8 | 11.3 | 0.00 | 0.08 | 0.08 | 61 | 1014.1 |
| 20260502004210 | 6 | 285 | 3.2 | 11.3 | 0.00 | 0.08 | 0.08 | 61 | 1014.1 |
| 20260502003632 | 6 | 306 | 0.0 | 4.8 | 0.00 | 0.08 | 0.08 | 63 | 1014.0 |
| 20260502003150 | 6 | 306 | 0.0 | 3.2 | 0.00 | 0.08 | 0.08 | 63 | 1014.0 |
| 20260502002633 | 6 | 307 | 0.0 | 3.2 | 0.00 | 0.08 | 0.08 | 63 | 1014.0 |
| 20260502002153 | 6 | 305 | 0.0 | 6.4 | 0.00 | 0.08 | 0.08 | 63 | 1014.0 |
| 20260502001634 | 6 | 324 | 0.0 | 6.4 | 0.00 | 0.08 | 0.08 | 62 | 1013.9 |
| 20260502001154 | 6 | 329 | 1.6 | 6.4 | 0.00 | 0.08 | 0.08 | 63 | 1013.8 |
| 20260502000657 | 6 | 31 | 0.0 | 8.0 | 0.00 | 0.08 | 0.08 | 62 | 1013.7 |
| 20260502000155 | 6 | 291 | 3.2 | 9.7 | 0.00 | 0.08 | 0.08 | 62 | 1013.7 |
| 20260501235637 | 6 | 320 | 1.6 | 9.7 | 0.00 | 0.08 | 0.08 | 62 | 1013.7 |
| 20260501235135 | 6 | 288 | 1.6 | 12.9 | 0.00 | 0.08 | 0.08 | 62 | 1013.7 |
| 20260501234638 | 6 | 59 | 4.8 | 12.9 | 0.00 | 0.08 | 0.08 | 61 | 1013.7 |
| 20260501234135 | 6 | 32 | 3.2 | 8.0 | 0.00 | 0.08 | 0.08 | 62 | 1013.6 |
| 20260501233638 | 6 | 20 | 3.2 | 8.0 | 0.00 | 0.08 | 0.08 | 62 | 1013.5 |
| 20260501233137 | 6 | 307 | 1.6 | 6.4 | 0.00 | 0.08 | 0.08 | 63 | 1013.5 |
| 20260501232640 | 6 | 290 | 1.6 | 6.4 | 0.00 | 0.08 | 0.08 | 62 | 1013.5 |
| 20260501232139 | 6 | 326 | 1.6 | 14.5 | 0.00 | 0.08 | 0.08 | 63 | 1013.5 |
| 20260501231644 | 6 | 274 | 1.6 | 8.0 | 0.00 | 0.08 | 0.08 | 61 | 1013.5 |
| 20260501231142 | 7 | 342 | 1.6 | 8.0 | 0.00 | 0.08 | 0.08 | 61 | 1013.5 |
| 20260501230706 | 7 | 2 | 0.0 | 8.0 | 0.00 | 0.08 | 0.08 | 61 | 1013.5 |
| 20260501230132 | 7 | 300 | 3.2 | 6.4 | 0.00 | 0.08 | 0.08 | 64 | 1013.5 |
| 20260501225657 | 7 | 28 | 0.0 | 4.8 | 0.00 | 0.08 | 0.08 | 66 | 1013.5 |
| 20260501225155 | 7 | 298 | 0.0 | 9.7 | 0.00 | 0.08 | 0.08 | 65 | 1013.5 |
| 20260501224637 | 7 | 300 | 1.6 | 11.3 | 0.00 | 0.08 | 0.08 | 62 | 1013.5 |
| 20260501224136 | 7 | 308 | 3.2 | 11.3 | 0.00 | 0.08 | 0.08 | 59 | 1013.6 |
| 20260501223705 | 7 | 300 | 3.2 | 12.9 | 0.00 | 0.08 | 0.08 | 59 | 1013.6 |
| 20260501223148 | 7 | 293 | 6.4 | 12.9 | 0.00 | 0.08 | 0.08 | 59 | 1013.5 |
| 20260501222650 | 7 | 259 | 3.2 | 8.0 | 0.00 | 0.08 | 0.08 | 59 | 1013.4 |
| 20260501222151 | 7 | 302 | 0.0 | 3.2 | 0.00 | 0.08 | 0.08 | 61 | 1013.3 |
| 20260501221655 | 7 | 276 | 0.0 | 11.3 | 0.00 | 0.08 | 0.08 | 63 | 1013.3 |
| 20260501221131 | 7 | 29 | 0.0 | 14.5 | 0.00 | 0.08 | 0.08 | 63 | 1013.2 |
| 20260501220131 | 8 | 278 | 4.8 | 12.9 | 0.00 | 0.08 | 0.08 | 56 | 1013.1 |
| 20260501215634 | 8 | 113 | 3.2 | 9.7 | 0.00 | 0.08 | 0.08 | 55 | 1013.1 |
| 20260501215155 | 8 | 296 | 1.6 | 8.0 | 0.00 | 0.08 | 0.08 | 55 | 1013.0 |
| 20260501214657 | 8 | 320 | 3.2 | 9.7 | 0.00 | 0.08 | 0.08 | 54 | 1013.0 |
| 20260501214137 | 8 | 321 | 1.6 | 9.7 | 0.00 | 0.08 | 0.08 | 54 | 1012.9 |
| 20260501213640 | 8 | 292 | 0.0 | 8.0 | 0.00 | 0.08 | 0.08 | 53 | 1012.9 |
| 20260501213144 | 8 | 243 | 3.2 | 9.7 | 0.00 | 0.08 | 0.08 | 52 | 1012.8 |
| 20260501212647 | 8 | 304 | 4.8 | 9.7 | 0.00 | 0.08 | 0.08 | 53 | 1012.9 |
| 20260501212142 | 8 | 292 | 3.2 | 11.3 | 0.00 | 0.08 | 0.08 | 52 | 1012.8 |
| 20260501211648 | 8 | 280 | 3.2 | 11.3 | 0.00 | 0.08 | 0.08 | 51 | 1012.8 |
| 20260501211142 | 8 | 332 | 3.2 | 12.9 | 0.00 | 0.08 | 0.08 | 52 | 1012.7 |
| 20260501210644 | 8 | 349 | 6.4 | 12.9 | 0.00 | 0.08 | 0.08 | 52 | 1012.8 |
| 20260501210146 | 8 | 287 | 3.2 | 9.7 | 0.00 | 0.08 | 0.08 | 54 | 1012.7 |
| 20260501205648 | 8 | 63 | 4.8 | 6.4 | 0.00 | 0.08 | 0.08 | 52 | 1012.6 |
| 20260501205148 | 9 | 358 | 1.6 | 6.4 | 0.00 | 0.08 | 0.08 | 52 | 1012.7 |
| 20260501204632 | 8 | 335 | 0.0 | 8.0 | 0.00 | 0.08 | 0.08 | 54 | 1012.7 |
| 20260501204132 | 8 | 51 | 1.6 | 8.0 | 0.00 | 0.08 | 0.08 | 54 | 1012.7 |
| 20260501203702 | 8 | 290 | 1.6 | 12.9 | 0.00 | 0.08 | 0.08 | 53 | 1012.6 |
| 20260501203208 | 8 | 273 | 1.6 | 12.9 | 0.00 | 0.08 | 0.08 | 54 | 1012.6 |
| 20260501202647 | 8 | 302 | 4.8 | 12.9 | 0.00 | 0.08 | 0.08 | 53 | 1012.6 |
| 20260501202149 | 8 | 233 | 3.2 | 12.9 | 0.00 | 0.08 | 0.08 | 54 | 1012.5 |
| 20260501201633 | 9 | 300 | 1.6 | 6.4 | 0.00 | 0.08 | 0.08 | 53 | 1012.6 |
| 20260501201153 | 8 | 20 | 1.6 | 11.3 | 0.00 | 0.08 | 0.08 | 55 | 1012.6 |
| 20260501200656 | 8 | 323 | 6.4 | 11.3 | 0.00 | 0.08 | 0.08 | 54 | 1012.6 |
| 20260501200156 | 8 | 110 | 1.6 | 9.7 | 0.00 | 0.08 | 0.08 | 54 | 1012.6 |
| 20260501195636 | 8 | 349 | 3.2 | 11.3 | 0.00 | 0.08 | 0.08 | 53 | 1012.6 |
| 20260501195136 | 8 | 57 | 3.2 | 11.3 | 0.00 | 0.08 | 0.08 | 53 | 1012.6 |
| 20260501194705 | 9 | 330 | 0.0 | 6.4 | 0.00 | 0.08 | 0.08 | 51 | 1012.6 |
| 20260501194209 | 9 | 309 | 1.6 | 6.4 | 0.00 | 0.08 | 0.08 | 50 | 1012.5 |
| 20260501193631 | 10 | 72 | 1.6 | 6.4 | 0.00 | 0.08 | 0.08 | 51 | 1012.4 |
| 20260501193150 | 9 | 64 | 1.6 | 9.7 | 0.00 | 0.08 | 0.08 | 53 | 1012.4 |
| 20260501192633 | 10 | 239 | 1.6 | 6.4 | 0.00 | 0.08 | 0.08 | 51 | 1012.4 |
| 20260501192200 | 9 | 52 | 1.6 | 8.0 | 0.00 | 0.08 | 0.08 | 52 | 1012.4 |
| 20260501191642 | 9 | 214 | 0.0 | 8.0 | 0.00 | 0.08 | 0.08 | 53 | 1012.3 |
| 20260501191140 | 9 | 21 | 4.8 | 9.7 | 0.00 | 0.08 | 0.08 | 52 | 1012.3 |
| 20260501190710 | 9 | 347 | 3.2 | 9.7 | 0.00 | 0.08 | 0.08 | 51 | 1012.4 |
| 20260501190148 | 9 | 35 | 1.6 | 6.4 | 0.00 | 0.08 | 0.08 | 53 | 1012.4 |
| 20260501185631 | 9 | 30 | 3.2 | 6.4 | 0.00 | 0.08 | 0.08 | 52 | 1012.3 |
| 20260501185131 | 9 | 65 | 3.2 | 11.3 | 0.00 | 0.08 | 0.08 | 52 | 1012.3 |
| 20260501184635 | 9 | 20 | 1.6 | 11.3 | 0.00 | 0.08 | 0.08 | 50 | 1012.2 |
| 20260501184135 | 9 | 285 | 1.6 | 6.4 | 0.00 | 0.08 | 0.08 | 51 | 1012.1 |
| 20260501183637 | 9 | 18 | 1.6 | 6.4 | 0.00 | 0.08 | 0.08 | 51 | 1012.0 |
| 20260501183136 | 9 | 77 | 3.2 | 8.0 | 0.00 | 0.08 | 0.08 | 50 | 1012.1 |
| 20260501182639 | 9 | 303 | 3.2 | 17.7 | 0.00 | 0.08 | 0.08 | 48 | 1012.1 |
| 20260501182137 | 8 | 2 | 1.6 | 17.7 | 0.00 | 0.08 | 0.08 | 50 | 1012.1 |
| 20260501181641 | 9 | 295 | 1.6 | 4.8 | 0.00 | 0.08 | 0.08 | 50 | 1012.0 |
| 20260501181139 | 8 | 67 | 1.6 | 9.7 | 0.00 | 0.08 | 0.08 | 48 | 1012.0 |
| 20260501180710 | 8 | 50 | 3.2 | 9.7 | 0.00 | 0.08 | 0.08 | 49 | 1012.0 |